Showing default

RASSVET-3 7, 68366

Orbit data source: Space-Track

RASSVET-3 7, 68366 is a payload satellite owned by Byuro 1440 (CIS) in LEO that was launched on Mon, 23 Mar 2026 UTC via a SOYUZ-2-1B launch vehicle from the Plesetsk Missile And Space Complex (PKMTR). Payload-class satellites include a variety of spacecraft equipped with specific instruments for various scientific and technological missions. These include communications satellites like Starlink; space stations such as the ISS; scientific satellites like the Hubble; Earth observation satellites from companies like Planet Labs, Umbra, and HawkEye 360; GPS; miniature CubeSats for education and research; and military/defense satellites.

Loading next visibility...
Identifier
68366, 2026-061G
Orbit
LEO
Country
Flag of CISCIS
Related business
Manufacturer
Byuro 1440
Mission
Operational spacecraft
Bus & Motor
RASSVET-2, Unknown motor
Mass
~370 kg wet, ~370 kg dry
Launch date (UTC)
2026-03-23 (3 months ago)
Launch vehicle
SOYUZ-2-1B
Launch site
Plesetsk Missile And Space Complex (PKMTR)
Object type
Payload
Rocket body
Debris
Shape & HBR
Unknown shape, 14.5 m
Radar Cross Section
Large (>1 m²)

Expand to show TLE details & history
Last TLE update: 11 hours ago

TLE from 11 hours ago
0 RASSVET-3 7
1 68366U 26061G   26169.64306345  .00003399  00000-0  15956-3 0  9992
2 68366  82.2936  12.4482 0007315 137.1610 223.0195 15.19300054 13674
Epoch: 2026-06-18T15:26Z
TLE epoch observation values (Epoch: 2026-06-18T15:26:00.682Z)
Latitude
-0.00001°
Longitude
-125.93809°
Altitude
514.721 km
Speed
7.604 km/s
True Right ascension
00h 49m 47s
True Declination
0° 00' 00"
Sunlit
Object was in daylight at epoch
Visualization orbit readout
Latitude
Unknown
Longitude
Unknown
Altitude
Unknown
Speed
Unknown
Apparent Right ascension
Unknown
Apparent Declination
Unknown
Sunlit
N/A
Visualization observer readout
Local Sidereal Time
13:24:51
Azimuth
Unknown
Elevation
Unknown
Doppler factor
Unknown
Orbital elements
Apogee altitude
509.97 km
Perigee altitude
499.9 km
Semi-major axis
6,883.072 km
Eccentricity
0.00073
Inclination
82.2936°
RAAN
12.4482°
Arg. of periapsis
137.161°
True anomaly
222.96235°
Mean anomaly
223.0195°
Eccentric anomaly
222.99092°
Mean motion
3.80075 °/min
Orbital period
94.72 mins
BSTAR
0.00015956
Loading maneuver chart data...
Computing Atmospheric mass density...
Loading historical data...
Loading historical data...
Loading historical data...
Loading historical data...
Loading historical data...
Loading historical data...
Loading historical data...

Documentation

Showing up to 5 results
|